Location: �chenoz-la-M�line
(47.6009°N, 6.1354°E)
Time: 04:08:47
(UTC+00:00)

COSMO-SKYMED 1 - Pass Details

Date: 27 January 2021
Orbit: 621 x 623 km, 97.9° (Epoch: 27 February)

Event Time Altitude Azimuth Distance (km) Brightness Sun altitude
Rises 05:05:05 0° 179° (S) 2,892 6.1 -20.7°
Reaches altitude 10° 05:07:18 10° 184° (S) 1,990 5.2 -20.3°
Maximum altitude 05:11:31 50° 260° (W) 797 2.7 -19.6°
Enters shadow 05:12:21 43° 297° (WNW) 876 2.9 -19.4°
